Regional Weather Roundup
Issued by NWS Tiyan, Guam

Home | Current Version | Previous Version | Text Only | Print | Product List | Glossary On
Versions: 1 2 3 4 5 6 7 8 9 10 11 12 13 14 15 16 17 18 19 20 21 22 23 24 25 26 27 28 29 30 31 32 33 34 35 36 37 38 39 40 41 42 43 44 45 46 47 48 49 50
000
ASGM40 PGUM 230912
RWRGUM
WEATHER ROUNDUP FOR THE MARIANAS
NATIONAL WEATHER SERVICE TIYAN GU
700 PM CHST TUE MAY 23 2017

GUZ001>004-231000-
MARIANA ISLANDS-

CITY           SKY/WX    TMP DP  RH WIND       PRES   REMARKS
GUAM AIRPORT   PTCLDY    82  75  78 E5        29.87R
ANDERSEN AFB   PTCLDY    81  73  78 SE9       29.88R
ROTA AIRPORT   PTCLDY    81  77  89 E8        29.88R
TINIAN AP      PTCLDY    82  72  69 E5        29.86R
SAIPAN AP      PTCLDY    84  73  70 E6        29.87R HX  91

$$




USA.gov is the U.S. government's official web portal to all federal, state and local government web resources and services.